• Join FlightAware (Why Join?)
  • Login
  • US Flag 
12:58PM EST


 

Airport Tracker/Info


-or-


 

Live Flight TrackerFlight Track Log ✈ ASQ4577 ✈ 05-Jul-2013 ✈ KCLE - KALB

Flight Track Log - Related Links

Times and Time Zones

All times are in EDT time to prevent confusion due to time zone crossing. See the ASQ4577 flight status page for this flight to view local times or setup timezone preferences in your user account.

Time Position Orientation Groundspeed Altitude Reporting Facility
EDT Latitude Longitude Course Direction KTS MPH feet Rate Location/Type
06:57PM 41.3897 -81.8839 90° East 161 185 1,900  Level Cleveland Center
06:58PM 41.3808 -81.9336 257° West 217 250 3,300 1,821 Climbing Cleveland Center
06:59PM 41.4239 -81.9844 318° Northwest 201 231 5,300 2,150 Climbing Cleveland Center
07:00PM 41.6624 -81.5876 37° Northeast  Level FlightAware Approximate
07:00PM 41.4769 -81.9078 47° Northeast 185 213 7,600  Level Cleveland Center
07:01PM 41.7506 -81.4994 37° Northeast  Level FlightAware Approximate
07:01PM 41.5342 -81.8314 45° Northeast 242 278 9,500  Level Cleveland Center
07:02PM 41.8333 -81.4074 90° East  Level FlightAware Approximate
07:02PM 41.5997 -81.7467 44° Northeast 300 345 10,700  Level Cleveland Center
07:03PM 41.8500 -81.2626 90° East  Level FlightAware Approximate
07:03PM 41.6631 -81.6589 46° Northeast 337 388 11,500  Level Cleveland Center
07:04PM 41.7369 -81.5569 46° Northeast 370 426 12,800 1,300 Climbing Cleveland Center
07:05PM 41.7817 -81.4297 65° Northeast 369 425 14,100 1,350 Climbing Cleveland Center
07:06PM 41.8056 -81.2878 77° East 374 430 15,500 1,250 Climbing Cleveland Center
07:07PM 41.8336 -81.1489 75° East 379 436 16,600 1,150 Climbing Cleveland Center
07:08PM 41.8592 -80.9931 78° East 384 442 17,800 1,050 Climbing Cleveland Center
07:09PM 41.8825 -80.8481 78° East 395 455 18,700 1,050 Climbing Cleveland Center
07:10PM 41.9058 -80.6975 78° East 395 455 19,900 1,200 Climbing Cleveland Center
07:11PM 41.9308 -80.5497 77° East 395 455 21,100 1,250 Climbing Cleveland Center
07:12PM 41.9536 -80.4017 78° East 401 461 22,400 1,250 Climbing Cleveland Center
07:13PM 41.9783 -80.2508 78° East 401 461 23,600 1,200 Climbing Cleveland Center
07:14PM 42.0028 -80.0969 78° East 415 478 24,800 1,100 Climbing Cleveland Center
07:15PM 42.0269 -79.9514 77° East 409 471 25,800 1,000 Climbing Cleveland Center
07:16PM 42.0511 -79.7917 78° East 416 479 26,800 1,050 Climbing Cleveland Center
07:17PM 42.0728 -79.6406 79° East 416 479 27,900 1,050 Climbing Cleveland Center
07:18PM 42.0964 -79.4892 78° East 410 472 28,900 1,000 Climbing Cleveland Center
07:19PM 42.1200 -79.3292 79° East 415 478 29,900 1,000 Climbing Cleveland Center
07:20PM 42.1431 -79.1717 79° East 415 478 30,900 550 Climbing Cleveland Center
07:21PM 42.1681 -79.0031 79° East 432 497 31,000 50 Climbing Cleveland Center
07:22PM 42.1908 -78.8483 79° East 448 516 31,000  Level Cleveland Center
07:23PM 42.2192 -78.6711 78° East 469 540 31,000  Level Cleveland Center
07:24PM 42.2453 -78.4822 79° East 491 565 31,000  Level Cleveland Center
07:25PM 42.2708 -78.2992 79° East 496 571 31,000  Level Cleveland Center
07:26PM 42.2961 -78.1128 80° East 496 571 31,000  Level Cleveland Center
07:27PM 42.3194 -77.9350 80° East 496 571 31,000  Level Cleveland Center
07:28PM 42.3461 -77.7514 79° East 496 571 31,000  Level Cleveland Center
07:29PM 42.3722 -77.5478 80° East 491 565 31,000 -100 Level Cleveland Center
07:30PM 42.3964 -77.3639 80° East 491 565 30,800 -550 Descending Cleveland Center
07:31PM 42.4206 -77.1825 80° East 491 565 29,900 -688 Descending Cleveland Center
07:33PM 42.4550 -76.8897 81° East 490 564 29,000 -344 Descending Boston Center
07:34PM 42.4744 -76.7081 82° East 490 564 29,000  Level Boston Center
07:35PM 42.4936 -76.5264 82° East 485 558 29,000  Level Boston Center
07:36PM 42.5147 -76.3389 81° East 490 564 29,000 -50 Level Boston Center
07:37PM 42.5308 -76.1708 83° East 490 564 28,900  Descending Boston Center
07:38PM 42.5492 -75.9942 82° East 490 564 29,000 50 Climbing Boston Center
07:39PM 42.5669 -75.8147 82° East 480 552 29,000 -750 Level Boston Center
07:40PM 42.5828 -75.6294 83° East 480 552 27,500 -2,050 Descending Boston Center
07:41PM 42.6019 -75.4583 81° East 480 552 24,900 -2,550 Descending Boston Center
07:42PM 42.6169 -75.2814 83° East 480 552 22,400 -2,450 Descending Boston Center
07:43PM 42.6336 -75.1156 82° East 465 535 20,000 -2,350 Descending Boston Center
07:44PM 42.6478 -74.9525 83° East 455 524 17,700 -2,452 Descending Boston Center
07:44PM 42.6583 -74.8456 82° East 414 476 16,200 -2,552 Descending Boston Center
07:45PM 42.6717 -74.7019 83° East 410 472 14,000 -2,276 Descending Boston Center
07:46PM 42.6794 -74.6261 82° East 417 480 12,900 -2,000 Descending Boston Center
07:47PM 42.6928 -74.4797 83° East 396 456 10,900 -1,400 Descending Boston Center
07:48PM 42.7031 -74.3528 84° East 360 414 10,100 -1,100 Descending Boston Center
07:49PM 42.7133 -74.2344 83° East 316 364 8,700 -1,273 Descending Boston Center
07:50PM 42.7339 -74.1247 76° East 306 352 7,300 -1,500 Descending Boston Center
07:51PM 42.7731 -74.0156 64° Northeast 288 331 5,400 -1,700 Descending Boston Center
07:52PM 42.8075 -73.9203 64° Northeast 283 326 3,900 -1,500 Descending Boston Center